Nashua, NH

8:46 AM EDT on October 20, 2017 (GMT -0400)
Boire

Weather History for KASH - June, 2013

Change the Weather History Date:

Tuesday, June 25, 2013

  Actual Average Record
Temperature  
Mean Temperature 79 °F -  
Max Temperature 90 °F 77 °F 96 °F (1949)
Min Temperature 68 °F 54 °F 43 °F (1953)
Cooling Degree Days 14    
Growing Degree Days 29 (Base 50)    
Moisture  
Dew Point 68 °F    
Average Humidity 74    
Maximum Humidity 93    
Minimum Humidity 43    
Precipitation  
Precipitation 0.11 in - - ()
Sea Level Pressure  
Sea Level Pressure 30.35 in    
Wind  
Wind Speed 2 mph (West)    
Max Wind Speed 13 mph    
Max Gust Speed 21 mph    
Visibility 9 miles    
Events Rain , Thunderstorm    
Averages and records for this station are not official NWS values.
T = Trace of Precipitation, MM = Missing Value Source: NWS Daily Summary

Daily Weather History Graph

Daily Weather History Graph

Search for Another Location

Airport or City:

Trip Planner

Search our weather history database for the weather conditions in past years. The results will help you decide how hot, cold, wet, or windy it might be!

Date:

Astronomy

Jun. 25, 2013 Rise Set
Actual Time 5:08 AM EDT 8:28 PM EDT
Civil Twilight 4:33 AM EDT 9:03 PM EDT
Nautical Twilight 3:48 AM EDT 9:49 PM EDT
Astronomical Twilight 2:51 AM EDT 10:45 PM EDT
Moon 10:06 PM EDT (6/25) 7:49 AM EDT (6/25)
Length of Visible Light 16h 29m
Length of Day
15h 19m
Waning Gibbous, 93% of the Moon is Illuminated
Jun 25
Waning Gibbous
Jun 30
Last Quarter
Jul 8
New
Jul 15
First Quarter
Jul 22
Full

Hourly Weather History & Observations

Time (EDT) Temp. Heat Index Dew Point Humidity Pressure Visibility Wind Dir Wind Speed Gust Speed Precip Events Conditions
12:51 AM 70.9 °F - 68.0 °F 91% 30.65 in 10.0 mi Calm Calm - N/A   Partly Cloudy
1:51 AM 70.0 °F - 66.9 °F 90% 30.63 in 10.0 mi Calm Calm - N/A   Partly Cloudy
2:51 AM 70.9 °F - 65.8 °F 84% 30.61 in 10.0 mi Calm Calm - N/A   Clear
3:51 AM 70.0 °F - 64.9 °F 84% 30.61 in 10.0 mi Calm Calm - N/A   Clear
4:51 AM 68.9 °F - 64.9 °F 87% 30.62 in 10.0 mi Calm Calm - N/A   Clear
5:51 AM 68.9 °F - 64.9 °F 87% 30.62 in 10.0 mi Calm Calm - N/A   Clear
6:51 AM 72.9 °F - 64.9 °F 76% 30.61 in 10.0 mi Calm Calm - N/A   Clear
7:51 AM 74.8 °F - 64.9 °F 71% 30.62 in 10.0 mi Calm Calm - 0.00 in   Clear
8:51 AM 79.9 °F - 65.8 °F 62% 30.61 in 10.0 mi WSW 3.5 mph - N/A   Clear
9:51 AM 82.9 °F 85.4 °F 66.9 °F 58% 30.59 in 10.0 mi Variable 4.6 mph - N/A   Clear
10:51 AM 84.9 °F 88.2 °F 68.0 °F 57% 30.60 in 10.0 mi West 9.2 mph - N/A   Clear
11:51 AM 86.9 °F 91.0 °F 68.9 °F 55% 30.59 in 10.0 mi WNW 10.4 mph - N/A   Clear
12:51 PM 88.9 °F 92.6 °F 68.0 °F 50% 30.57 in 10.0 mi SW 8.1 mph - N/A   Clear
1:51 PM 90.9 °F 94.0 °F 66.9 °F 45% 30.54 in 10.0 mi West 8.1 mph 16.1 mph N/A   Partly Cloudy
2:51 PM 90.9 °F 94.8 °F 68.0 °F 47% 30.51 in 10.0 mi Calm Calm - N/A   Partly Cloudy
3:51 PM 90.9 °F 94.8 °F 68.0 °F 47% 30.48 in 10.0 mi Variable 6.9 mph - N/A   Clear
4:51 PM 90.9 °F 93.1 °F 65.8 °F 43% 30.47 in 10.0 mi Variable 6.9 mph - N/A   Scattered Clouds
5:51 PM 86.9 °F 89.6 °F 66.9 °F 51% 30.45 in 10.0 mi Calm Calm - N/A   Clear
6:51 PM 84.9 °F 88.8 °F 68.9 °F 59% 30.45 in 10.0 mi Calm Calm - N/A   Clear
7:31 PM 80.6 °F 83.9 °F 69.8 °F 70% 29.74 in 1.2 mi Variable 6.9 mph - 0.07 in Rain Rain
7:40 PM 75.2 °F - 69.8 °F 83% 29.74 in 2.5 mi Calm Calm - 0.08 in Rain Light Rain
7:51 PM 74.8 °F - 70.9 °F 87% 30.45 in 4.0 mi Variable 3.5 mph - 0.08 in Rain Rain
8:24 PM 75.2 °F - 71.6 °F 89% 29.73 in 10.0 mi Calm Calm - 0.01 in   Scattered Clouds
8:41 PM 75.2 °F - 71.6 °F 89% 29.77 in 6.0 mi NW 12.7 mph 20.7 mph 0.02 in Rain , Thunderstorm Thunderstorms and Rain
8:51 PM 73.9 °F - 70.0 °F 87% 30.47 in 7.0 mi North 8.1 mph 17.3 mph 0.03 in Rain , Thunderstorm Light Thunderstorms and Rain
9:25 PM 73.4 °F - 69.8 °F 88% 29.76 in 10.0 mi Calm Calm - 0.00 in   Clear
9:32 PM 73.4 °F - 69.8 °F 88% 29.77 in 10.0 mi Calm Calm - 0.00 in   Scattered Clouds
9:51 PM 72.9 °F - 70.0 °F 91% 30.48 in 10.0 mi Calm Calm - 0.00 in   Scattered Clouds
10:00 PM 73.4 °F - 69.8 °F 88% 29.77 in 10.0 mi Calm Calm - N/A   Mostly Cloudy
10:08 PM 73.4 °F - 69.8 °F 88% 29.76 in 10.0 mi Calm Calm - N/A   Partly Cloudy
10:51 PM 72.0 °F - 70.0 °F 93% 30.48 in 8.0 mi Calm Calm - N/A   Clear
11:51 PM 70.9 °F - 68.9 °F 93% 30.47 in 6.0 mi Calm Calm - N/A   Clear